Date,TemperatureHighF,TemperatureAvgF,TemperatureLowF,DewpointHighF,DewpointAvgF,DewpointLowF,HumidityHigh,HumidityAvg,HumidityLow,PressureMaxIn,PressureMinIn,WindSpeedMaxMPH,WindSpeedAvgMPH,GustSpeedMaxMPH,PrecipitationSumIn
2013-1-1,66,55,46,57,50,43,93,82,70,30.19,29.93,11,1,11,0.00
2013-1-2,59,55,50,54,52,47,96,91,82,30.15,29.89,8,1,9,0.06
2013-1-3,52,49,43,50,46,41,96,91,83,30.29,30.09,7,0,7,0.08
2013-1-4,54,42,33,44,38,31,96,84,60,30.38,30.27,10,1,12,0.01
2013-1-5,56,41,26,42,33,24,95,76,39,30.43,30.30,8,0,9,0.01
2013-1-6,56,48,42,46,42,39,90,80,62,30.30,30.10,18,2,18,0.00
2013-1-7,57,43,30,41,35,29,95,77,48,30.42,30.21,12,1,13,0.00
2013-1-8,61,49,33,48,42,31,93,76,61,30.42,30.33,7,1,7,0.00
2013-1-9,72,58,47,61,52,44,92,82,64,30.43,30.34,8,0,8,0.00
2013-1-10,74,60,47,59,54,46,99,81,54,30.46,30.33,12,1,14,0.00
2013-1-11,74,63,57,66,60,56,98,91,75,30.34,30.15,12,1,12,0.01
2013-1-12,81,68,56,65,60,55,97,80,53,30.20,30.09,12,2,14,0.00
2013-1-13,78,65,52,66,60,50,97,85,63,30.17,30.07,15,1,15,0.01
2013-1-14,80,68,59,66,61,57,96,79,60,30.17,30.07,19,3,19,0.00
2013-1-15,79,68,56,64,60,55,96,79,56,30.15,30.01,20,2,20,0.00
2013-1-16,82,70,61,65,62,59,94,77,50,30.03,29.92,22,3,27,0.00
2013-1-17,77,61,44,65,55,39,92,83,67,30.13,29.68,25,5,38,0.21
2013-1-18,55,44,33,40,32,26,94,67,32,30.51,30.13,20,2,22,0.01
2013-1-19,61,44,29,45,36,26,92,73,47,30.51,30.23,10,0,10,0.00
2013-1-20,68,49,34,44,37,32,96,68,31,30.23,30.05,15,2,15,0.00
2013-1-21,66,48,30,41,33,27,95,62,27,30.11,29.98,18,4,19,0.00
2013-1-22,54,44,35,27,23,21,67,44,29,30.29,30.07,18,3,18,0.00
2013-1-23,56,40,27,34,26,20,79,58,36,30.39,30.17,19,2,19,0.00
2013-1-24,66,51,34,46,33,12,84,52,27,30.46,30.09,21,4,21,0.00
2013-1-25,38,34,28,28,18,11,67,53,40,30.49,30.16,9,0,9,0.00
2013-1-26,62,46,35,40,33,27,82,61,36,30.33,30.12,8,0,8,0.00
2013-1-27,54,42,31,34,30,27,86,66,41,30.53,30.33,11,1,13,0.00
2013-1-28,64,48,39,52,41,32,92,78,64,30.48,30.30,7,0,7,0.00
2013-1-29,78,58,39,65,53,38,97,83,58,30.30,30.08,14,1,19,0.00
2013-1-30,80,70,52,67,63,48,93,80,58,30.09,29.55,28,6,31,0.44
2013-1-31,55,48,40,49,31,24,88,53,31,30.18,29.71,30,9,32,0.01
2013-2-1,54,44,28,32,22,10,75,45,18,30.38,30.12,28,5,28,0.00
2013-2-2,58,40,22,36,23,18,92,57,22,30.40,30.10,17,1,17,0.00
2013-2-3,62,50,38,38,34,28,80,56,34,30.11,29.92,26,6,27,0.00
2013-2-4,52,40,28,36,30,26,93,72,42,30.16,30.05,6,0,7,0.00
2013-2-5,69,49,30,48,40,28,95,73,44,30.07,29.95,21,3,21,0.00
2013-2-6,72,54,37,52,42,35,96,69,30,30.18,30.03,10,1,12,0.00
2013-2-7,52,48,42,49,45,38,95,91,82,30.18,29.83,16,2,16,2.19
2013-2-8,63,51,43,51,46,41,95,85,64,30.11,29.84,17,4,18,0.00
2013-2-9,64,47,32,45,33,25,94,64,24,30.33,30.10,10,0,10,0.00
2013-2-10,67,51,32,54,44,30,94,78,56,30.41,30.15,15,2,18,0.14
2013-2-11,69,60,54,64,58,52,97,93,83,30.24,30.04,18,4,19,1.19
2013-2-12,66,57,49,56,51,43,96,82,47,30.14,29.86,10,2,13,0.90
2013-2-13,61,52,48,57,49,43,97,90,72,29.91,29.72,25,4,25,0.17
2013-2-14,55,46,38,44,41,36,93,81,58,30.09,29.89,7,0,7,0.01
2013-2-15,64,47,31,47,37,30,100,73,38,30.13,29.96,11,0,11,0.00
2013-2-16,47,40,33,41,35,22,93,84,44,30.08,29.85,19,2,21,0.18
2013-2-17,48,36,27,24,18,13,80,51,26,30.32,30.07,24,4,24,0.00
2013-2-18,58,40,23,32,26,20,92,61,32,30.43,30.27,13,1,18,0.00
2013-2-19,54,44,36,52,41,29,96,88,71,30.27,29.99,14,2,15,0.21
2013-2-20,60,45,29,39,31,25,92,64,30,30.18,30.06,12,1,12,0.00
2013-2-21,65,48,31,41,34,27,93,61,33,30.22,30.08,11,0,11,0.00
2013-2-22,50,44,40,42,40,35,96,86,59,30.22,30.10,14,2,14,0.58
2013-2-23,47,43,40,46,42,39,97,96,96,30.10,29.83,9,1,10,0.83
2013-2-24,70,54,42,51,44,36,100,75,31,30.01,29.88,10,2,11,0.01
2013-2-25,48,44,41,44,38,34,95,79,61,30.10,29.95,13,2,14,0.09
2013-2-26,69,50,41,65,48,38,97,92,84,29.98,29.55,10,2,14,1.16
2013-2-27,62,51,42,46,41,38,91,70,47,29.90,29.76,21,6,21,0.00
2013-2-28,57,49,41,42,36,30,84,63,44,29.94,29.80,27,6,27,0.00
2013-3-1,55,46,33,38,32,28,85,61,43,29.99,29.87,15,3,16,0.00
2013-3-2,48,41,33,40,34,29,86,76,66,29.96,29.88,18,4,18,0.01
2013-3-3,49,39,34,31,28,24,82,65,42,30.05,29.93,15,2,16,0.00
2013-3-4,59,41,25,32,25,21,89,57,23,30.22,30.05,12,1,13,0.00
2013-3-5,70,53,36,56,44,32,92,72,49,30.12,29.69,25,4,25,0.14
2013-3-6,53,45,37,41,29,24,72,55,41,30.14,29.74,32,10,32,0.00
2013-3-7,61,44,28,37,31,25,92,66,36,30.26,30.13,15,1,18,0.00
2013-3-8,61,46,30,34,29,23,88,56,25,30.33,30.19,14,1,14,0.00
2013-3-9,66,47,28,40,33,26,94,65,32,30.36,30.23,8,0,12,0.00
2013-3-10,71,53,34,50,42,32,95,69,39,30.30,30.16,13,1,13,0.00
2013-3-11,73,59,43,58,48,32,92,67,51,30.21,29.87,17,2,19,0.00
2013-3-12,72,63,54,61,54,40,95,76,45,29.99,29.80,17,4,17,0.40
2013-3-13,64,53,38,40,32,25,87,49,25,30.17,29.98,24,5,27,0.00
2013-3-14,58,44,31,30,25,21,77,50,25,30.35,30.16,13,2,15,0.00
2013-3-15,72,52,31,42,35,25,89,57,32,30.26,30.00,22,3,22,0.00
2013-3-16,80,66,55,50,45,42,68,48,28,30.01,29.84,26,8,33,0.00
2013-3-17,77,66,56,56,52,46,82,61,43,30.02,29.92,21,5,23,0.00
2013-3-18,66,61,49,62,56,47,95,85,75,30.07,29.81,15,1,22,0.74
2013-3-19,74,60,50,55,44,28,97,65,21,30.03,29.85,18,4,20,0.00
2013-3-20,61,52,40,38,31,22,87,49,24,30.13,29.84,12,1,12,0.00
2013-3-21,56,47,36,32,23,14,73,42,20,29.98,29.82,29,4,29,0.00
2013-3-22,51,42,31,38,27,21,83,56,35,30.11,29.97,12,1,13,0.00
2013-3-23,51,46,40,49,43,35,95,90,78,30.06,29.90,12,1,14,0.28
2013-3-24,51,48,44,49,46,42,99,94,91,29.91,29.54,14,2,14,1.11
2013-3-25,52,46,40,45,32,24,96,60,38,30.00,29.61,36,11,36,0.00
2013-3-26,52,42,31,30,27,24,79,57,39,30.22,29.99,18,5,21,0.00
2013-3-27,59,44,28,33,29,25,90,59,31,30.30,30.19,17,2,19,0.00
2013-3-28,63,46,29,35,29,25,91,57,26,30.34,30.20,17,2,17,0.00
2013-3-29,68,50,30,42,32,27,93,56,23,30.37,30.20,12,1,12,0.00
2013-3-30,74,60,50,51,47,39,83,63,40,30.25,30.05,14,1,14,0.00
2013-3-31,78,65,59,61,55,49,93,72,48,30.06,29.85,26,5,26,0.13
2013-4-1,76,66,56,63,57,44,96,76,40,29.97,29.85,16,3,22,0.73
2013-4-2,74,59,44,51,45,42,94,63,32,30.15,29.96,18,2,18,0.00
2013-4-3,64,56,48,51,41,35,91,59,38,30.25,30.08,13,1,14,0.01
2013-4-4,54,48,43,46,44,41,94,87,64,30.23,29.92,12,2,14,0.54
2013-4-5,58,49,41,50,44,39,94,85,70,30.06,29.92,11,2,12,0.00
2013-4-6,75,57,37,51,41,35,97,64,28,30.23,30.05,12,1,12,0.00
2013-4-7,78,61,42,59,50,40,96,72,44,30.26,30.10,14,1,16,0.00
2013-4-8,82,67,51,61,56,49,96,71,41,30.19,30.08,14,2,16,0.00
2013-4-9,85,70,53,66,59,51,97,72,45,30.22,30.11,14,1,14,0.00
2013-4-10,86,72,57,67,62,55,96,73,45,30.16,29.99,16,2,16,0.00
2013-4-11,83,71,61,72,66,59,97,86,64,30.01,29.78,16,2,16,0.26
2013-4-12,82,73,63,72,63,46,95,74,38,29.86,29.70,25,6,26,0.26
2013-4-13,81,65,49,53,48,44,86,57,28,30.02,29.85,11,1,12,0.00
2013-4-14,74,61,50,61,56,48,97,84,55,30.09,29.86,23,1,26,0.26
2013-4-15,73,66,61,66,62,59,94,88,78,30.17,29.90,12,1,15,0.00
2013-4-16,82,70,58,67,62,57,97,78,52,30.27,30.16,9,0,9,0.00
2013-4-17,85,71,55,67,61,54,96,75,49,30.25,30.11,10,0,14,0.00
2013-4-18,84,72,61,71,64,59,96,79,52,30.14,29.99,16,1,16,0.01
2013-4-19,85,71,56,72,66,50,95,85,59,30.01,29.79,28,6,32,0.41
2013-4-20,68,57,49,50,46,40,93,70,37,30.25,29.94,17,2,17,0.00
2013-4-21,70,57,42,50,45,40,96,68,41,30.36,30.24,18,1,18,0.00
2013-4-22,70,59,48,50,39,30,80,51,30,30.32,30.16,18,2,19,0.00
2013-4-23,74,59,44,56,49,41,93,72,49,30.23,30.11,11,1,15,0.00
2013-4-24,81,67,54,62,58,51,94,74,49,30.18,30.03,16,2,16,0.00
2013-4-25,80,69,58,65,61,55,95,76,53,30.24,30.07,13,1,13,0.00
2013-4-26,80,64,49,60,52,46,94,71,39,30.41,30.23,12,1,12,0.00
2013-4-27,69,61,56,59,55,46,95,80,59,30.37,30.22,9,0,10,0.24
2013-4-28,71,63,56,68,61,51,95,91,83,30.23,30.01,7,0,8,1.12
2013-4-29,76,67,62,69,64,60,97,91,71,30.06,29.94,9,1,9,0.94
2013-4-30,77,67,62,68,63,60,97,89,68,30.11,29.96,10,0,11,0.02
2013-5-1,71,64,59,62,59,57,95,84,69,30.22,30.10,11,1,11,0.00
2013-5-2,72,66,62,64,61,59,92,84,73,30.20,30.12,12,1,12,0.00
2013-5-3,67,62,58,62,58,56,94,88,81,30.14,30.03,13,1,16,0.02
2013-5-4,64,60,54,59,54,49,94,84,69,30.03,29.88,16,2,16,0.12
2013-5-5,69,62,58,67,61,57,96,94,91,29.90,29.77,15,2,16,0.86
2013-5-6,71,62,53,62,54,47,96,77,47,29.94,29.81,16,3,17,0.00
2013-5-7,72,60,50,59,53,48,96,81,55,29.98,29.88,14,1,15,0.06
2013-5-8,80,65,50,61,55,49,96,73,43,30.03,29.94,16,3,19,0.01
2013-5-9,86,71,55,66,59,53,95,71,38,30.10,30.00,12,1,13,0.00
2013-5-10,87,73,58,67,62,56,96,72,42,30.09,29.96,17,2,17,0.00
2013-5-11,83,74,64,68,65,61,94,75,56,30.01,29.85,18,3,18,0.00
2013-5-12,80,72,60,66,56,44,93,62,33,30.03,29.84,20,3,24,0.00
2013-5-13,74,61,48,46,43,38,88,54,30,30.17,30.02,16,2,16,0.00
2013-5-14,78,62,42,50,44,40,92,58,29,30.28,30.14,14,1,14,0.00
2013-5-15,96,73,56,65,57,47,76,58,33,30.17,29.98,17,4,20,0.07
2013-5-16,82,72,62,69,63,58,92,74,58,30.07,29.98,12,2,12,0.00
2013-5-17,88,74,60,69,64,59,97,73,41,30.12,30.03,12,1,12,0.00
2013-5-18,82,73,63,70,66,62,96,81,62,30.13,30.04,12,1,12,0.06
2013-5-19,82,73,68,72,69,66,97,89,70,30.12,30.03,14,2,15,0.01
2013-5-20,86,75,69,73,70,66,97,85,62,30.11,30.01,12,1,12,0.01
2013-5-21,87,73,66,75,69,65,97,89,60,30.07,29.95,14,1,15,0.01
2013-5-22,87,73,62,72,67,61,99,83,54,30.03,29.89,14,1,14,0.00
2013-5-23,86,75,66,72,68,63,97,79,54,29.95,29.85,19,3,19,0.00
2013-5-24,82,73,62,64,55,41,85,55,30,30.17,29.89,20,3,20,0.00
2013-5-25,80,65,47,53,45,38,88,53,25,30.32,30.17,13,1,13,0.00
2013-5-26,85,67,51,58,53,49,94,65,32,30.28,30.15,11,1,11,0.00
2013-5-27,87,72,54,66,60,52,98,69,41,30.25,30.13,9,1,12,0.00
2013-5-28,86,74,59,69,64,58,97,74,48,30.24,30.16,13,1,13,0.00
2013-5-29,88,74,58,69,64,57,97,73,48,30.25,30.15,12,1,13,0.00
2013-5-30,89,75,58,72,66,57,98,76,52,30.27,30.14,12,1,12,0.00
2013-5-31,90,77,65,73,69,63,97,78,50,30.23,30.10,10,1,13,0.00
2013-6-1,90,77,65,72,68,64,98,77,49,30.16,30.03,13,1,14,0.00
2013-6-2,91,77,66,75,70,64,97,81,52,30.10,29.90,15,2,15,0.00
2013-6-3,88,78,72,77,73,71,97,85,60,29.95,29.84,14,2,18,0.35
2013-6-4,88,76,69,76,72,68,98,87,65,30.03,29.91,9,0,13,0.19
2013-6-5,87,75,71,77,72,69,97,92,70,30.04,29.94,16,1,18,0.78
2013-6-6,81,74,71,74,71,68,97,93,75,29.96,29.71,15,1,18,0.87
2013-6-7,86,76,71,76,72,70,97,89,68,29.86,29.53,20,5,20,1.76
2013-6-8,87,77,70,74,70,68,96,82,58,30.08,29.84,15,3,16,0.00
2013-6-9,82,74,70,77,73,69,98,94,79,30.14,30.05,17,0,22,1.26
2013-6-10,86,77,72,78,74,70,97,91,73,30.09,29.96,19,4,19,0.24
2013-6-11,90,78,69,79,74,68,97,87,66,30.04,29.92,19,3,19,0.01
2013-6-12,95,83,72,81,75,71,98,79,49,30.00,29.90,12,1,12,0.00
2013-6-13,94,84,74,78,75,73,97,76,52,29.92,29.69,27,5,27,0.00
2013-6-14,87,79,68,74,66,58,93,68,39,30.01,29.74,15,1,16,0.00
2013-6-15,88,75,60,69,64,58,96,71,39,30.13,30.00,9,0,10,0.00
2013-6-16,88,76,62,73,67,60,96,76,48,30.18,30.03,14,1,14,0.00
2013-6-17,90,76,67,76,70,65,95,84,58,30.08,29.94,25,1,27,0.28
2013-6-18,86,76,70,78,73,70,97,90,74,30.02,29.84,18,4,18,0.52
2013-6-19,80,75,70,76,73,68,96,91,82,30.07,29.88,12,1,12,1.00
2013-6-20,85,76,69,71,69,66,95,80,57,30.18,30.05,13,1,14,0.00
2013-6-21,86,75,63,68,64,59,97,73,43,30.22,30.13,12,1,16,0.00
2013-6-22,86,76,64,75,70,62,94,82,67,30.18,30.09,10,0,10,0.00
2013-6-23,86,77,70,77,73,69,97,89,67,30.20,30.11,11,0,12,0.91
2013-6-24,86,75,70,80,73,69,98,92,74,30.23,30.13,10,1,15,0.34
2013-6-25,89,77,70,77,72,69,98,86,61,30.17,30.04,11,1,12,0.03
2013-6-26,90,76,71,80,72,67,96,89,66,30.09,29.94,27,2,29,0.05
2013-6-27,92,81,73,79,75,70,97,83,62,29.97,29.77,22,5,25,0.01
2013-6-28,93,82,72,79,74,70,95,79,60,29.82,29.64,20,5,24,0.00
2013-6-29,84,78,74,76,73,69,93,85,74,29.75,29.67,18,4,18,0.00
2013-6-30,87,76,70,79,73,69,97,91,71,29.85,29.71,10,1,11,0.50
2013-7-1,81,74,69,76,72,68,97,93,79,29.98,29.81,11,1,11,0.74
2013-7-2,77,74,72,75,73,71,97,95,91,30.14,29.98,9,1,9,0.94
2013-7-3,82,76,73,78,74,72,97,94,85,30.20,30.11,10,0,12,0.33
2013-7-4,88,78,74,79,75,71,97,91,73,30.21,30.13,16,1,28,0.33
2013-7-5,87,77,74,80,75,73,98,93,74,30.22,30.16,13,0,13,0.35
2013-7-6,87,78,74,79,75,72,98,91,72,30.21,30.10,12,1,17,0.54
2013-7-7,91,81,74,80,75,72,98,84,62,30.18,30.07,12,1,14,0.00
2013-7-8,90,79,73,81,75,72,96,89,71,30.19,30.10,11,1,11,0.03
2013-7-9,92,80,73,80,75,72,97,87,65,30.18,30.07,17,1,17,0.00
2013-7-10,88,79,74,79,75,72,96,86,69,30.12,29.97,14,2,17,0.00
2013-7-11,90,79,73,79,74,71,97,86,63,29.99,29.85,14,2,17,0.13
2013-7-12,85,77,72,78,73,69,97,89,75,29.95,29.85,9,0,11,0.43
2013-7-13,84,75,71,77,72,68,96,91,75,30.06,29.93,10,0,12,2.68
2013-7-14,85,77,72,78,74,71,98,92,72,30.22,30.05,20,1,20,0.34
2013-7-15,90,79,73,80,75,72,97,88,67,30.26,30.19,9,0,12,0.01
2013-7-16,93,81,71,80,74,70,98,81,54,30.30,30.20,8,0,9,0.00
2013-7-17,94,78,72,81,73,69,97,86,57,30.23,30.10,21,0,23,0.36
2013-7-18,92,80,69,80,74,68,98,84,62,30.19,30.05,8,0,9,0.00
2013-7-19,90,80,72,78,75,70,97,85,63,30.13,29.99,10,0,10,0.00
2013-7-20,88,79,74,77,74,72,95,85,64,30.08,29.94,18,3,18,0.00
2013-7-21,89,80,74,80,75,73,96,88,70,30.05,29.92,13,2,15,0.32
2013-7-22,88,80,73,78,74,72,96,84,64,30.01,29.88,18,4,19,0.00
2013-7-23,91,81,74,77,74,72,93,80,57,29.92,29.79,10,4,18,0.00
2013-7-24,90,77,71,80,74,70,96,90,67,29.83,29.75,18,1,20,0.55
2013-7-25,92,80,70,77,73,69,97,82,57,30.00,29.78,8,0,9,0.00
2013-7-26,92,80,70,79,74,69,96,81,57,30.08,29.98,8,0,8,0.00
2013-7-27,87,79,74,78,75,70,97,88,72,30.04,29.90,13,1,16,0.00
2013-7-28,92,80,71,77,73,70,97,82,54,30.01,29.92,11,1,13,0.01
2013-7-29,91,77,72,80,74,70,97,90,63,30.15,30.00,7,0,23,0.69
2013-7-30,91,80,70,80,74,68,98,86,63,30.18,30.10,7,0,8,0.00
2013-7-31,83,76,73,79,74,71,97,94,85,30.14,30.00,18,0,18,0.17
2013-8-1,85,77,73,79,75,72,97,92,77,30.01,29.89,9,0,11,0.31
2013-8-2,90,80,73,80,76,72,97,89,67,30.04,29.92,8,0,10,0.00
2013-8-3,92,82,72,80,75,71,97,83,57,30.03,29.93,11,0,11,0.00
2013-8-4,94,82,73,81,75,71,96,82,59,30.00,29.90,8,0,9,0.00
2013-8-5,88,80,73,76,73,68,95,80,61,30.05,29.96,11,0,11,0.00
2013-8-6,88,76,69,78,72,67,96,89,69,30.05,29.96,15,0,16,0.92
2013-8-7,89,79,72,77,74,71,97,84,60,30.08,29.99,8,0,9,0.00
2013-8-8,93,81,71,79,74,69,97,81,55,30.06,29.98,7,0,8,0.00
2013-8-9,93,82,74,80,76,72,97,84,64,30.11,30.01,12,1,15,0.00
2013-8-10,95,83,72,80,76,71,97,80,56,30.14,30.05,11,1,12,0.00
2013-8-11,95,84,74,80,76,73,97,78,54,30.14,30.04,15,2,17,0.00
2013-8-12,95,83,74,81,77,73,97,82,58,30.08,29.95,11,1,12,0.00
2013-8-13,92,81,74,82,77,72,97,87,65,29.98,29.83,19,2,19,1.00
2013-8-14,85,78,73,76,73,71,95,86,68,30.02,29.85,10,1,12,0.01
2013-8-15,73,68,63,71,66,61,96,93,85,30.10,29.99,13,0,13,0.94
2013-8-16,69,67,66,68,66,64,97,95,93,30.11,30.03,11,0,12,0.75
2013-8-17,72,68,66,70,67,65,97,96,91,30.17,30.06,8,0,10,0.11
2013-8-18,89,76,69,79,73,68,98,91,70,30.20,30.10,10,0,10,0.11
2013-8-19,84,76,72,79,74,71,98,94,80,30.16,30.05,9,0,11,0.98
2013-8-20,88,77,73,79,74,71,98,92,72,30.17,30.08,10,0,11,0.07
2013-8-21,92,79,70,80,74,69,98,87,62,30.23,30.10,7,0,9,0.01
2013-8-22,94,79,70,79,73,69,97,84,56,30.16,30.01,12,0,12,0.57
2013-8-23,88,77,71,78,73,70,97,89,68,30.06,29.96,11,0,11,0.11
2013-8-24,82,75,69,73,71,67,97,88,73,30.24,30.02,11,0,12,0.00
2013-8-25,85,73,64,67,65,60,97,77,48,30.34,30.23,15,0,15,0.01
2013-8-26,86,72,61,72,65,59,95,80,52,30.29,30.13,11,0,11,0.00
2013-8-27,89,74,60,75,67,58,97,80,54,30.16,30.00,10,0,10,0.01
2013-8-28,91,78,66,76,70,65,97,80,54,30.04,29.94,11,1,12,0.00
2013-8-29,97,81,68,81,74,67,97,81,52,29.98,29.86,9,0,11,0.00
2013-8-30,89,79,73,77,74,71,94,85,65,30.03,29.92,8,0,8,0.00
2013-8-31,75,72,70,74,70,68,96,95,93,29.96,29.91,0,0,0,0.15
2013-9-1,93,81,72,81,76,71,98,85,61,29.94,29.82,8,1,14,0.01
2013-9-2,92,80,73,80,75,70,97,85,66,29.94,29.81,13,2,14,0.01
2013-9-3,91,79,72,78,74,70,97,86,63,29.97,29.84,18,2,19,0.54
2013-9-4,95,81,70,79,74,69,97,82,52,30.07,29.94,7,0,8,0.00
2013-9-5,93,81,71,78,73,70,97,79,47,30.10,30.01,6,0,8,0.01
2013-9-6,90,78,68,74,70,67,96,79,52,30.12,30.03,9,0,12,0.01
2013-9-7,90,76,63,74,68,62,97,78,47,30.11,29.97,10,0,10,0.00
2013-9-8,92,76,63,77,69,62,97,80,48,30.01,29.90,10,0,10,0.01
2013-9-9,93,79,66,76,71,65,97,79,50,30.13,29.97,8,0,8,0.00
2013-9-10,91,80,67,76,71,66,97,76,52,30.23,30.13,11,0,11,0.01
2013-9-11,93,76,63,75,69,62,97,82,48,30.21,30.08,4,0,11,0.00
2013-9-12,92,76,64,76,69,63,98,81,49,30.10,29.87,12,1,12,0.00
2013-9-13,93,79,69,74,70,66,96,76,45,29.88,29.74,9,0,10,0.00
2013-9-14,84,74,65,69,62,54,92,68,57,30.07,29.83,14,1,14,0.00
2013-9-15,92,77,65,76,69,62,93,78,50,30.16,30.06,10,0,11,0.00
2013-9-16,88,78,71,79,74,70,97,87,68,30.12,30.02,10,0,10,0.06
2013-9-17,83,74,64,72,66,60,97,77,55,30.24,30.08,15,1,15,0.00
2013-9-18,81,69,60,64,60,56,92,74,50,30.25,30.14,10,0,11,0.00
2013-9-19,88,70,55,67,60,54,97,75,45,30.18,30.08,9,0,9,0.00
2013-9-20,89,74,60,71,66,58,97,78,52,30.09,29.93,10,0,11,0.00
2013-9-21,86,75,66,72,69,64,96,83,59,29.96,29.70,15,2,17,0.18
2013-9-22,84,73,64,70,66,60,96,79,52,29.88,29.71,10,1,12,0.02
2013-9-23,83,69,56,66,61,55,97,78,48,30.05,29.88,9,0,10,0.01
2013-9-24,83,69,57,64,61,56,96,76,50,30.06,29.91,11,0,14,0.00
2013-9-25,79,69,64,67,64,62,96,85,62,29.92,29.81,14,0,14,0.37
2013-9-26,80,68,60,67,63,59,96,85,56,29.99,29.83,13,0,13,0.01
2013-9-27,80,67,57,63,59,55,95,77,51,30.13,29.99,14,1,16,0.00
2013-9-28,79,65,53,62,57,52,96,79,54,30.20,30.11,15,1,15,0.00
2013-9-29,76,66,56,61,58,54,93,78,55,30.14,30.02,6,0,10,0.00
2013-9-30,76,62,50,61,55,49,97,80,52,30.09,30.00,9,0,11,0.01
2013-10-1,83,66,50,63,57,49,97,77,43,30.16,30.05,10,0,11,0.00
2013-10-2,88,69,53,67,60,52,97,78,44,30.16,30.05,11,0,11,0.00
2013-10-3,64,64,64,61,61,61,92,92,92,30.13,30.12,0,0,0,0.00
2013-10-4,88,72,60,72,64,60,98,80,47,30.15,30.06,4,0,18,0.00
2013-10-5,89,73,59,70,64,58,97,77,46,30.13,30.02,5,0,10,0.00
2013-10-6,87,73,61,73,68,60,98,85,56,30.06,29.89,10,0,12,0.02
2013-10-7,78,75,71,76,74,70,97,95,90,29.92,29.79,11,0,11,0.20
2013-10-8,71,63,58,70,59,54,96,85,73,30.15,29.88,18,2,20,0.05
2013-10-9,77,65,57,61,57,53,95,76,56,30.16,30.06,15,2,16,0.00
2013-10-10,80,63,50,60,55,49,97,80,42,30.10,29.97,7,1,16,0.01
2013-10-11,85,69,58,66,61,56,95,79,45,30.02,29.90,15,2,16,0.00
2013-10-12,83,69,56,67,62,55,97,81,53,30.06,29.94,8,0,8,0.00
2013-10-13,78,70,62,67,65,61,96,85,68,30.16,30.05,13,1,13,0.00
2013-10-14,72,68,66,66,64,62,91,87,79,30.17,30.10,13,1,18,0.00
2013-10-15,79,67,57,62,58,53,93,74,43,30.14,30.01,15,1,15,0.00
2013-10-16,80,66,52,66,60,51,99,82,58,30.06,29.95,7,0,8,0.00
2013-10-17,84,72,61,69,66,60,97,81,58,29.99,29.87,15,2,16,0.00
2013-10-18,77,71,66,72,69,65,97,92,80,29.98,29.88,5,0,6,0.01
2013-10-19,80,71,62,70,64,54,97,80,52,29.95,29.88,11,2,14,0.11
2013-10-20,74,63,54,59,55,52,95,77,50,30.08,29.93,11,0,11,0.00
2013-10-21,72,58,50,60,54,48,96,87,60,30.13,30.01,6,0,8,0.00
2013-10-22,71,63,59,63,60,57,98,90,72,30.04,29.84,6,0,7,0.00
2013-10-23,73,63,50,62,49,36,97,66,27,30.07,29.77,27,5,27,0.00
2013-10-24,67,50,35,45,39,33,93,69,35,30.22,30.06,12,1,13,0.00
2013-10-25,61,50,36,44,39,34,94,70,37,30.37,30.16,15,1,18,0.00
2013-10-26,37,36,36,34,34,34,91,91,91,30.36,30.36,0,0,0,0.00
2013-10-27,76,54,37,55,46,36,94,75,45,30.16,30.07,8,1,14,0.00
2013-10-28,75,60,50,62,55,49,96,83,52,30.27,30.13,8,0,9,0.00
2013-10-29,78,60,46,58,53,45,97,80,49,30.35,30.24,11,0,13,0.00
2013-10-30,80,62,49,60,54,47,96,79,48,30.33,30.18,13,1,14,0.00
2013-10-31,81,66,50,68,60,49,97,83,58,30.21,29.96,16,1,17,0.00
2013-11-1,80,70,65,70,66,64,97,89,71,29.97,29.74,22,4,22,0.45
2013-11-2,75,63,49,64,55,46,96,77,40,30.00,29.76,19,2,19,0.00
2013-11-3,68,52,40,47,43,39,96,74,37,30.32,29.99,13,1,13,0.00
2013-11-4,65,51,40,43,39,36,94,66,35,30.49,30.30,13,1,16,0.00
2013-11-5,69,54,40,54,46,36,88,76,56,30.48,30.36,13,1,16,0.00
2013-11-6,75,61,51,62,55,48,95,83,64,30.37,30.11,9,0,9,0.00
2013-11-7,77,63,53,66,56,39,97,80,49,30.11,29.95,19,2,19,0.00
2013-11-8,63,49,36,39,35,30,93,64,29,30.33,30.11,17,1,17,0.00
2013-11-9,66,48,32,46,38,30,94,72,33,30.38,30.24,7,0,8,0.00
2013-11-10,72,55,42,49,43,36,93,70,28,30.27,30.14,14,1,14,0.00
2013-11-11,67,51,38,42,38,35,94,65,34,30.33,30.18,12,0,12,0.00
2013-11-12,75,51,34,48,38,32,96,67,29,30.42,30.02,31,4,36,0.00
2013-11-13,50,37,27,32,24,17,90,63,28,30.56,30.41,17,2,17,0.00
2013-11-14,62,40,21,37,28,19,92,70,28,30.53,30.34,9,0,10,0.00
2013-11-15,64,50,35,56,46,32,96,84,67,30.35,30.17,6,0,7,0.01
2013-11-16,77,61,52,63,56,51,97,86,57,30.25,30.14,8,0,9,0.00
2013-11-17,75,63,49,68,60,48,97,91,75,30.18,29.97,10,0,13,0.00
2013-11-18,87,73,57,72,60,37,96,68,36,29.97,29.82,23,4,23,0.01
2013-11-19,64,51,38,40,32,26,92,52,24,30.22,29.96,17,1,19,0.00
2013-11-20,47,47,47,32,32,32,56,56,56,30.22,30.21,1,0,2,0.00
2013-11-21,64,56,50,53,48,42,80,73,66,30.42,30.33,4,1,12,0.00
2013-11-22,76,63,53,65,58,50,96,85,68,30.34,30.14,10,1,16,0.00
2013-11-23,74,63,54,64,58,40,97,85,56,30.17,30.03,14,2,15,0.00
2013-11-24,54,42,29,40,21,14,59,44,26,30.53,30.16,20,3,21,0.00
2013-11-25,51,39,23,30,19,11,71,47,29,30.55,30.28,9,1,11,0.00
2013-11-26,70,56,43,68,52,30,97,86,55,30.28,29.57,19,2,23,0.56
2013-11-27,70,46,32,68,43,27,96,91,72,30.25,29.55,27,4,30,0.18
2013-11-28,49,35,26,32,28,24,94,78,44,30.51,30.25,11,0,11,0.00
2013-11-29,58,39,26,37,30,24,94,75,35,30.56,30.47,10,0,10,0.00
2013-11-30,54,43,32,39,34,28,89,71,52,30.59,30.35,12,1,13,0.00
2013-12-1,60,50,42,49,43,37,92,77,62,30.35,30.03,7,0,7,0.00
2013-12-2,65,53,45,48,45,42,93,78,46,30.03,29.83,13,1,14,0.00
2013-12-3,66,56,47,58,53,45,96,88,71,29.98,29.88,17,1,17,0.41
2013-12-4,69,62,58,65,60,57,97,94,85,30.10,29.95,8,1,10,0.32
2013-12-5,71,64,59,67,63,58,98,96,86,30.15,30.06,12,1,12,0.06
2013-12-6,80,70,61,71,65,60,98,87,68,30.14,30.03,19,2,19,0.01
2013-12-7,72,61,46,68,59,45,95,93,85,30.36,30.06,13,2,14,0.39
2013-12-8,46,44,41,45,42,40,96,95,94,30.38,30.26,9,1,12,0.18
2013-12-9,56,49,41,56,48,40,98,97,96,30.27,30.06,5,0,5,0.02
2013-12-10,69,58,40,68,53,30,98,83,53,30.34,29.95,28,5,28,0.19
2013-12-11,40,36,33,32,32,30,91,83,73,30.36,30.33,0,0,0,0.00
2013-12-12,55,40,30,37,31,25,96,73,33,30.43,30.29,9,1,14,0.00
2013-12-13,59,41,26,41,32,24,94,74,33,30.42,30.24,10,0,10,0.00
2013-12-14,66,56,45,65,52,39,97,87,74,30.24,29.81,12,1,15,0.94
2013-12-15,57,51,39,56,46,35,97,84,65,30.15,29.77,24,5,26,0.05
2013-12-16,61,44,31,40,36,29,95,76,41,30.24,30.14,12,2,15,0.00
2013-12-17,66,50,34,40,36,32,93,63,34,30.23,30.07,22,4,23,0.00
2013-12-18,57,45,32,37,32,26,93,66,33,30.33,30.10,9,1,10,0.00
2013-12-19,64,44,28,44,35,27,94,75,28,30.39,30.24,10,1,12,0.00
2013-12-20,71,52,38,57,47,37,96,84,54,30.28,30.17,16,1,17,0.00
2013-12-21,80,63,45,68,58,44,97,84,62,30.18,30.02,16,2,19,0.00
2013-12-22,80,73,66,69,68,65,95,84,67,30.10,30.02,21,4,23,0.00
2013-12-23,71,64,56,68,63,55,97,94,91,30.15,30.03,16,2,16,0.37
2013-12-24,58,49,38,55,39,27,96,71,34,30.40,30.11,23,3,23,0.00
2013-12-25,47,39,28,29,25,21,77,58,43,30.53,30.36,12,1,12,0.00
2013-12-26,49,43,36,45,36,27,95,78,53,30.38,30.26,8,0,8,0.08
2013-12-27,56,41,32,37,33,30,96,77,42,30.47,30.33,10,0,11,0.01
2013-12-28,58,44,30,44,35,28,94,75,38,30.42,30.07,8,0,8,0.04
2013-12-29,66,54,46,65,51,44,98,89,71,30.08,29.80,27,5,27,1.15
2013-12-30,56,49,40,48,44,39,96,85,64,30.18,29.99,11,1,11,0.00
2013-12-31,56,49,39,46,42,37,98,79,49,30.38,30.16,17,2,17,0.00
2014-1-1,51,44,37,44,40,36,95,86,72,30.40,30.15,3,0,3,0.00
2014-1-2,52,48,40,52,46,32,97,93,74,30.16,29.70,25,3,29,0.46